Location: Buckland
(65.9785°N, 161.1281°W)
Time: 18:22:05
(UTC+00:00)

Explorer 7 - Pass Details

Date: 05 December 2020
Orbit: 484 x 678 km, 50.3° (Epoch: 15 January)

Event Time Altitude Azimuth Distance (km) Brightness Sun altitude
Rises 12:57:59 0° 232° (SW) 2,923 - -40.9°
Reaches altitude 10° 13:02:17 10° 194° (SSW) 1,959 - -40.6°
Maximum altitude 13:03:14 11° 182° (S) 1,906 - -40.5°
Drops below altitude 10° 13:04:10 10° 169° (S) 1,933 - -40.4°
Sets 13:08:16 0° 131° (SE) 2,770 - -40.1°
